Location: Aboncourt
(47.7710°N, 5.9826°E)
Time: 03:31:48
(UTC+00:00)

COSMOS 2455 - Pass Details

Date: 05 July 2020
Orbit: 898 x 911 km, 67.1° (Epoch: 03 August)

Event Time Altitude Azimuth Distance (km) Brightness Sun altitude
Rises 23:26:12 0° 326° (NW) 3,552 7.0 -19.5°
Reaches altitude 10° 23:28:44 10° 328° (NNW) 2,607 6.1 -19.5°
Maximum altitude 23:34:48 79° 55° (NE) 932 2.9 -19.6°
Enters shadow 23:38:23 26° 140° (SE) 1,715 3.9 -19.6°
